Estación municipal de St. Julià de Vilatorta (Osona, E.N.Guilleries-Savassona)

Consulta los datos en tiempo real de la estación municipal de St. Julià de Vilatorta





Hora UTC 01:45
Temperatura 17.5 ºC
Subsuelo 10 cm 13.8 ºC
Humedad 84.8 %
Presión 1022.5 hPa
Pluja 0.0 mm
Velocidad viento 3.4 km/h
Dirección viento ESE
Radiación solar 0.3 W/m²
Fuel 8.4 %

Webcam

Datos diarios 2026-09-03



Hora UTC (invierno +1h; verano +2h)
Temperatura (ºC) Humedad (%) Presión (hPa) Velocidad viento (km/h) Precipitación (mm) Fuel (%) Radiación solar (W/m²)
Hora UTC Aire Subsuelo 10 cm Humedad Presión Vel. Dir. Vel. Max Dir. Intent. máx 5 min. Fuel Rad. Sol.
00:05 17.7 13.9 83.5 1022.6 1.7 SSE 1.7 SSE 0.0 7.8 0.3
00:10 17.5 13.9 84.1 1022.6 2.4 SSE 3.6 SSE 0.0 7.8 0.3
00:15 17.4 14.1 84.9 1022.6 2.5 SE 4.4 SSE 0.0 7.7 0.6
00:20 17.4 14.0 85.3 1022.6 2.3 SE 4.0 SE 0.0 7.7 0.3
00:25 17.3 14.0 85.2 1022.6 2.4 SE 4.1 SE 0.0 7.8 0.6
00:30 17.4 13.9 85.8 1022.7 2.6 SE 4.2 SE 0.0 7.9 0.7
00:35 17.4 13.9 85.1 1022.6 3.2 SE 6.0 SSE 0.0 7.9 0.6
00:40 17.6 13.9 85.3 1022.6 2.2 ESE 4.1 ESE 0.0 7.9 0.7
00:45 17.6 13.9 85.0 1022.6 2.6 ESE 4.9 E 0.0 8.0 0.4
00:50 17.6 14.0 84.7 1022.6 4.3 E 6.2 E 0.0 7.9 0.4
00:55 17.5 14.1 84.8 1022.6 2.8 ESE 4.6 ESE 0.0 8.0 0.5
01:00 17.7 14.1 83.8 1022.6 3.2 ESE 5.5 ESE 0.0 8.0 0.7
01:05 17.8 14.1 83.8 1022.5 2.7 ESE 4.0 E 0.0 8.0 0.7
01:10 17.7 14.1 83.6 1022.6 2.8 SE 4.4 SSE 0.0 8.1 0.3
01:15 17.6 14.4 84.3 1022.6 2.6 ESE 4.4 SSE 0.0 8.1 0.3
01:20 17.5 14.5 84.9 1022.5 3.5 E 5.8 ESE 0.0 8.2 0.2
01:25 17.5 14.3 84.8 1022.5 2.8 SE 5.5 ESE 0.0 8.1 0.3
01:30 17.6 14.1 84.2 1022.5 1.9 SE 2.7 SE 0.0 8.2 0.1
01:35 17.5 14.0 84.6 1022.5 2.8 ESE 5.7 ESE 0.0 8.3 0.3
01:40 17.5 13.9 85.0 1022.5 3.4 ESE 5.1 SE 0.0 8.3 0.4
01:45 17.5 13.8 84.8 1022.5 3.4 ESE 5.5 ESE 0.0 8.4 0.3
Máxima 17.8 14.5 85.8 1022.7 4.3 E 6.2 E 0.0 8.4 0.7
Mínima 17.3 13.8 83.5 1022.5 7.7
Total 0.0